User: anonymous   Login
Location: Albany
(35.0000°S, 118.0000°E)
Time: 07:32:18
(UTC-04:00)
Language:

Atlas Centaur 2 - Orbit

View from above orbital plane
View from above orbital plane
View from above satellite
View from above satellite

Ground track
Ground track

The orbit data is extracted from the following two-line orbital elements,

1   694U 63047A   18115.77677831 +.00000582 +00000-0 +60291-4 0  9998
2   694 030.3590 244.8138 0587120 223.9101 131.3371 14.02305819727000
Epoch (UTC): 25 April 2018 18:38:33
Eccentricity: 0.0587120
inclination: 30.3590°
perigee height: 459 km
apogee height: 1312 km
right ascension of ascending node: 244.8138°
argument of perigee: 223.9101°
revolutions per day: 14.02305819
mean anomaly at epoch: 131.3371°
orbit number at epoch: 72700

The dashed part of the orbit path shows where the satellite is in the earth's shadow,  

DLR